Siemreap, Cambodia

3:56 AM +07 on June 28, 2017 (GMT +0700)
Siem Reap

Weather History for VDSR - August, 2013

Change the Weather History Date:

Friday, August 30, 2013

  Actual Average Record
Temperature  
Mean Temperature 82 °F -  
Max Temperature 87 °F - - ()
Min Temperature 78 °F - - ()
Cooling Degree Days 18    
Growing Degree Days 32 (Base 50)    
Moisture  
Dew Point 75 °F    
Average Humidity 75    
Maximum Humidity 94    
Minimum Humidity 62    
Precipitation  
Precipitation 0.00 in - - ()
Sea Level Pressure  
Sea Level Pressure 29.73 in    
Wind  
Wind Speed 3 mph ()    
Max Wind Speed 12 mph    
Max Gust Speed -    
Visibility 6.0 miles    
Events      
T = Trace of Precipitation, MM = Missing Value Source: Averaged Metar Reports

Daily Weather History Graph

Daily Weather History Graph

Search for Another Location

Airport or City:

Trip Planner

Search our weather history database for the weather conditions in past years. The results will help you decide how hot, cold, wet, or windy it might be!

Date:

Astronomy

Aug. 30, 2013 Rise Set
Actual Time 5:53 AM +07 6:17 PM +07
Civil Twilight 5:31 AM +07 6:38 PM +07
Nautical Twilight 5:06 AM +07 7:03 PM +07
Astronomical Twilight 4:41 AM +07 7:29 PM +07
Moon 12:35 AM +07 (8/30) 1:38 PM +07 (8/30)
Length of Visible Light 13h 07m
Length of Day
12h 23m
Waning Crescent, 33% of the Moon is Illuminated
Aug 30
Waning Crescent
Sep 5
New
Sep 13
First Quarter
Sep 19
Full
Sep 27
Last Quarter

Hourly Weather History & Observations

Time (+07) Temp. Heat Index Dew Point Humidity Pressure Visibility Wind Dir Wind Speed Gust Speed Precip Events Conditions
12:00 AM 78.8 °F - 77.0 °F 94% 29.77 in 5.6 mi ESE 2.3 mph - N/A   Mostly Cloudy
12:30 AM 80.6 °F 87.1 °F 77.0 °F 89% 29.77 in 5.6 mi ESE 2.3 mph - N/A   Mostly Cloudy
1:00 AM 80.6 °F 87.1 °F 77.0 °F 89% 29.74 in 5.6 mi ESE 2.3 mph - N/A   Mostly Cloudy
6:00 AM 78.8 °F - 75.2 °F 89% 29.74 in 5.6 mi Calm Calm - N/A   Partly Cloudy
7:00 AM 80.6 °F 86.2 °F 75.2 °F 84% 29.77 in 5.6 mi Calm Calm - N/A   Scattered Clouds
7:30 AM 82.4 °F 89.5 °F 75.2 °F 79% 29.77 in 5.6 mi Calm Calm - N/A   Scattered Clouds
8:00 AM 82.4 °F 89.5 °F 75.2 °F 79% 29.77 in 5.6 mi Calm Calm - N/A   Scattered Clouds
8:30 AM 82.4 °F 89.5 °F 75.2 °F 79% 29.77 in 5.6 mi Calm Calm - N/A   Scattered Clouds
9:00 AM 84.2 °F 92.3 °F 75.2 °F 74% 29.77 in 6.2 mi Calm Calm - N/A   Scattered Clouds
9:30 AM 84.2 °F 92.3 °F 75.2 °F 74% 29.77 in 6.2 mi Calm Calm - N/A   Scattered Clouds
10:00 AM 84.2 °F 92.3 °F 75.2 °F 74% 29.80 in 6.2 mi Variable 2.3 mph - N/A   Scattered Clouds
10:30 AM 86.0 °F 95.1 °F 75.2 °F 70% 29.80 in 6.2 mi Variable 2.3 mph - N/A   Scattered Clouds
11:00 AM 86.0 °F 95.1 °F 75.2 °F 70% 29.80 in 6.2 mi Variable 3.5 mph - N/A   Scattered Clouds
11:30 AM 87.8 °F 95.6 °F 73.4 °F 62% 29.77 in 6.2 mi West 5.8 mph - N/A   Scattered Clouds
12:00 PM 87.8 °F 95.6 °F 73.4 °F 62% 29.74 in 6.2 mi WNW 8.1 mph - N/A   Scattered Clouds
12:30 PM 87.8 °F 97.6 °F 75.2 °F 66% 29.74 in 6.2 mi NW 6.9 mph - N/A   Scattered Clouds
1:00 PM 87.8 °F 97.6 °F 75.2 °F 66% 29.71 in 6.2 mi Variable 3.5 mph - N/A   Scattered Clouds
1:30 PM 87.8 °F 95.6 °F 73.4 °F 62% 29.71 in 6.2 mi West 8.1 mph - N/A   Scattered Clouds
2:00 PM 87.8 °F 95.6 °F 73.4 °F 62% 29.68 in 6.2 mi WNW 11.5 mph - N/A   Scattered Clouds
2:30 PM 87.8 °F 97.6 °F 75.2 °F 66% 29.68 in 6.2 mi SW 6.9 mph - N/A   Scattered Clouds
3:00 PM 87.8 °F 97.6 °F 75.2 °F 66% 29.65 in 6.2 mi SSW 5.8 mph - N/A   Scattered Clouds
3:30 PM 87.8 °F 95.6 °F 73.4 °F 62% 29.65 in 6.2 mi SW 4.6 mph - N/A   Scattered Clouds
4:00 PM 87.8 °F 95.6 °F 73.4 °F 62% 29.65 in 6.2 mi WSW 4.6 mph - N/A   Scattered Clouds
4:30 PM 87.8 °F 95.6 °F 73.4 °F 62% 29.65 in 6.2 mi SW 4.6 mph - N/A   Scattered Clouds
5:00 PM 86.0 °F 93.4 °F 73.4 °F 66% 29.68 in 6.2 mi SSW 6.9 mph - N/A   Scattered Clouds
5:30 PM 86.0 °F 93.4 °F 73.4 °F 66% 29.68 in 6.2 mi SW 3.5 mph - N/A   Scattered Clouds
6:00 PM 86.0 °F 93.4 °F 73.4 °F 66% 29.68 in 6.2 mi SW 3.5 mph - N/A   Scattered Clouds
6:30 PM 86.0 °F 96.9 °F 77.0 °F 74% 29.68 in 6.2 mi SE 5.8 mph - N/A   Scattered Clouds
7:00 PM 84.2 °F 92.3 °F 75.2 °F 74% 29.68 in 6.2 mi SSE 8.1 mph - N/A   Scattered Clouds
7:30 PM 84.2 °F 92.3 °F 75.2 °F 74% 29.71 in 6.2 mi South 5.8 mph - N/A   Scattered Clouds
8:00 PM 82.4 °F 90.9 °F 77.0 °F 84% 29.71 in 6.2 mi SSE 4.6 mph - N/A   Scattered Clouds
8:30 PM 82.4 °F 90.9 °F 77.0 °F 84% 29.74 in 6.2 mi SSE 4.6 mph - N/A   Scattered Clouds
9:00 PM 82.4 °F 90.9 °F 77.0 °F 84% 29.74 in 6.2 mi SSE 4.6 mph - N/A   Scattered Clouds
9:30 PM 82.4 °F 90.9 °F 77.0 °F 84% 29.77 in 6.2 mi South 4.6 mph - N/A   Scattered Clouds
10:00 PM 82.4 °F 90.9 °F 77.0 °F 84% 29.77 in 5.6 mi South 4.6 mph - N/A   Unknown
10:30 PM 82.4 °F 90.9 °F 77.0 °F 84% 29.77 in 5.6 mi SSE 6.9 mph - N/A   Unknown
11:00 PM 82.4 °F 90.9 °F 77.0 °F 84% 29.77 in 5.6 mi South 3.5 mph - N/A   Unknown
11:30 PM 82.4 °F 90.9 °F 77.0 °F 84% 29.77 in 5.6 mi SW 3.5 mph - N/A   Unknown